North Adams, MA

5:46 AM EDT on July 24, 2017 (GMT -0400)
Harriman And West

Weather History for KAQW - November, 2012

Change the Weather History Date:

Thursday, November 8, 2012

  Actual Average Record
Temperature  
Mean Temperature 33 °F -  
Max Temperature 36 °F 47 °F 71 °F (1996)
Min Temperature 30 °F 30 °F 19 °F (2003)
Degree Days  
Heating Degree Days 32    
Moisture  
Dew Point 24 °F    
Average Humidity 66    
Maximum Humidity 81    
Minimum Humidity 59    
Precipitation  
Precipitation 0.00 in - - ()
Sea Level Pressure  
Sea Level Pressure 29.86 in    
Wind  
Wind Speed 9 mph (West)    
Max Wind Speed 13 mph    
Max Gust Speed 25 mph    
Visibility 8 miles    
Events Snow    
Averages and records for this station are not official NWS values.
T = Trace of Precipitation, MM = Missing Value Source: NWS Daily Summary

Daily Weather History Graph

Daily Weather History Graph

Search for Another Location

Airport or City:

Trip Planner

Search our weather history database for the weather conditions in past years. The results will help you decide how hot, cold, wet, or windy it might be!

Date:

Astronomy

Nov. 08, 2012 Rise Set
Actual Time 6:36 AM EST 4:36 PM EST
Civil Twilight 6:06 AM EST 5:06 PM EST
Nautical Twilight 5:32 AM EST 5:39 PM EST
Astronomical Twilight 4:59 AM EST 6:13 PM EST
Moon 12:20 AM EST (11/8) 1:23 PM EST (11/8)
Length of Visible Light 11h 00m
Length of Day
10h 00m
Waning Crescent, 33% of the Moon is Illuminated
Nov 8
Waning Crescent
Nov 13
New
Nov 20
First Quarter
Nov 28
Full
Dec 6
Last Quarter

Hourly Weather History & Observations

Time (EST) Temp. Windchill Dew Point Humidity Pressure Visibility Wind Dir Wind Speed Gust Speed Precip Events Conditions
12:52 AM 32.0 °F 25.6 °F 19.9 °F 61% 29.88 in 10.0 mi Variable 6.9 mph - N/A   Overcast
1:52 AM 32.0 °F 25.6 °F 19.9 °F 61% 29.87 in 10.0 mi Variable 6.9 mph - N/A   Overcast
2:52 AM 32.0 °F 25.6 °F 19.9 °F 61% 29.86 in 10.0 mi Variable 6.9 mph - N/A   Overcast
3:52 AM 32.0 °F 27.5 °F 19.0 °F 59% 29.84 in 10.0 mi Variable 4.6 mph - N/A   Overcast
4:52 AM 32.0 °F 24.8 °F 19.0 °F 59% 29.84 in 10.0 mi WSW 8.1 mph - N/A   Overcast
5:52 AM 32.0 °F 25.6 °F 19.0 °F 59% 29.84 in 10.0 mi Variable 6.9 mph - N/A   Mostly Cloudy
6:52 AM 30.9 °F 23.5 °F 19.9 °F 64% 29.84 in 10.0 mi WSW 8.1 mph - N/A   Clear
7:52 AM 33.1 °F 27.7 °F 21.0 °F 61% 29.85 in 10.0 mi Variable 5.8 mph - N/A   Overcast
8:52 AM 34.0 °F 28.0 °F 21.9 °F 61% 29.85 in 10.0 mi Variable 6.9 mph - N/A   Overcast
9:52 AM 35.1 °F 26.9 °F 21.9 °F 59% 29.84 in 10.0 mi West 11.5 mph 16.1 mph N/A   Overcast
10:52 AM 35.1 °F 27.4 °F 21.9 °F 59% 29.84 in 10.0 mi West 10.4 mph 20.7 mph N/A   Overcast
11:52 AM 35.1 °F 27.9 °F 23.0 °F 61% 29.83 in 10.0 mi West 9.2 mph 20.7 mph N/A   Overcast
12:02 PM 35.6 °F 28.0 °F 23.0 °F 60% 29.80 in 10.0 mi West 10.4 mph 19.6 mph N/A   Overcast
12:52 PM 35.1 °F 27.9 °F 24.1 °F 64% 29.82 in 10.0 mi WNW 9.2 mph 19.6 mph N/A   Mostly Cloudy
1:20 PM 35.6 °F 27.5 °F 24.8 °F 65% 29.79 in 10.0 mi WNW 11.5 mph 20.7 mph N/A   Overcast
1:52 PM 35.1 °F 26.9 °F 24.1 °F 64% 29.82 in 5.0 mi West 11.5 mph 21.9 mph 0.00 in Snow Light Snow
2:05 PM 35.6 °F 27.1 °F 24.8 °F 65% 29.80 in 8.0 mi West 12.7 mph 19.6 mph 0.00 in   Overcast
2:52 PM 34.0 °F 26.0 °F 25.0 °F 70% 29.84 in 6.0 mi West 10.4 mph 19.6 mph 0.00 in Snow Light Snow
3:52 PM 34.0 °F 26.6 °F 25.0 °F 70% 29.86 in 5.0 mi West 9.2 mph 25.3 mph 0.00 in Snow Light Snow
4:52 PM 34.0 °F 26.0 °F 26.1 °F 73% 29.88 in 4.0 mi West 10.4 mph 20.7 mph 0.00 in Snow Light Snow
5:52 PM 34.0 °F 25.5 °F 27.0 °F 75% 29.89 in 5.0 mi West 11.5 mph 20.7 mph 0.00 in Snow Light Snow
6:52 PM 34.0 °F 26.6 °F 27.0 °F 75% 29.91 in 3.0 mi West 9.2 mph 23.0 mph 0.00 in Snow Light Snow
7:52 PM 34.0 °F 26.6 °F 27.0 °F 75% 29.92 in 6.0 mi West 9.2 mph 20.7 mph 0.00 in Snow Light Snow
8:14 PM 33.8 °F 24.8 °F 28.4 °F 81% 29.90 in 2.5 mi West 12.7 mph 18.4 mph 0.00 in Snow Light Snow
8:26 PM 33.8 °F 24.8 °F 28.4 °F 81% 29.89 in 4.0 mi WSW 12.7 mph 17.3 mph 0.00 in Snow Light Snow
8:52 PM 35.1 °F 26.4 °F 27.0 °F 72% 29.91 in 10.0 mi West 12.7 mph 25.3 mph 0.00 in   Overcast
9:52 PM 36.0 °F 27.5 °F 27.0 °F 70% 29.91 in 10.0 mi WNW 12.7 mph 21.9 mph N/A   Overcast
10:52 PM 36.0 °F 29.0 °F 26.1 °F 67% 29.92 in 10.0 mi WSW 9.2 mph 17.3 mph N/A   Overcast
11:52 PM 36.0 °F 29.0 °F 25.0 °F 64% 29.91 in 10.0 mi WNW 9.2 mph 17.3 mph N/A   Overcast